This demonstration page uses our WeatherBlox Daily Observations layout. Learn more.

Left ArrowRight Arrow

34.02893, -84.19858

Hourly Observations for December 18, 2018

Temp ( °F °C ) Dew Point ( °F °C ) Humidity (%) Winds ( mph kmh ) Pressure ( in mb ) Visibility ( mi km ) Precip ( " mm )
12:53 am 00:53 Clear 44 6.7 34 1.1 68 68 NW 7 11 30.09 1019 10 16 0.00 0.00
1:53 am 01:53 Clear 43 6.1 33 0.6 68 68 W 6 9 30.10 1019 10 16 0.00 0.00
2:53 am 02:53 Clear 42 5.6 33 0.6 71 71 WNW 7 11 30.10 1019 10 16 0.00 0.00
3:53 am 03:53 Clear 42 5.6 33 0.6 71 71 WNW 8 13 30.10 1019 10 16 0.00 0.00
4:53 am 04:53 Clear 41 5 34 1.1 76 76 WNW 8 13 30.10 1019 10 16 0.00 0.00
5:53 am 05:53 Clear 40 4.4 33 0.6 77 77 NNW 7 11 30.11 1020 10 16 0.00 0.00
6:53 am 06:53 Clear 40 4.4 33 0.6 77 77 W 7 11 30.13 1020 10 16 0.00 0.00
7:53 am 07:53 Sunny 39 3.9 33 0.6 79 79 WNW 7 11 30.13 1020 8 13 0.00 0.00
8:53 am 08:53 Sunny 44 6.7 33 0.6 65 65 NW 12 19 30.15 1021 8 13 0.00 0.00
9:53 am 09:53 Sunny 50 10 31 -0.6 48 48 NNW 8 13 30.16 1021 10 16 0.00 0.00
10:53 am 10:53 Sunny 53 11.7 30 -1.1 41 41 NNW 10 17 30.15 1021 10 16 0.00 0.00
11:53 am 11:53 Sunny 57 13.9 28 -2.2 33 33 N 7 11 30.10 1019 10 16 0.00 0.00
12:53 pm 12:53 Sunny 60 15.6 27 -2.8 28 28 VRB 5 7 30.06 1018 10 16 0.00 0.00
1:53 pm 13:53 Sunny 60 15.6 28 -2.2 30 30 Calm 30.05 1018 10 16 0.00 0.00
2:53 pm 14:53 Sunny 61 16.1 28 -2.2 29 29 Calm 30.05 1018 9 14 0.00 0.00
3:53 pm 15:53 Sunny 62 16.7 29 -1.7 29 29 W 5 7 30.06 1018 9 14 0.00 0.00
4:53 pm 16:53 Sunny 61 16.1 27 -2.8 27 27 Calm 30.06 1018 9 14 0.00 0.00
5:53 pm 17:53 Clear 52 11.1 32 0 47 47 Calm 30.08 1019 10 16 0.00 0.00
6:53 pm 18:53 Clear 48 8.9 32 0 54 54 Calm 30.11 1020 10 16 0.00 0.00
7:53 pm 19:53 Clear 46 7.8 33 0.6 61 61 Calm 30.13 1020 9 14 0.00 0.00
8:53 pm 20:53 Clear 45 7.2 34 1.1 66 66 Calm 30.13 1020 9 14 0.00 0.00
9:53 pm 21:53 Clear 43 6.1 35 1.7 74 74 Calm 30.11 1020 8 13 0.00 0.00
10:53 pm 22:53 Clear 41 5 35 1.7 79 79 Calm 30.12 1020 7 11 0.00 0.00
11:53 pm 23:53 Clear 41 5 35 1.7 79 79 Calm 30.11 1020 7 11 0.00 0.00

Powered by AerisWeather